Voltar ao catálogo

STARLINK-36242

AtivoComunicaçõesVLEO
NORAD 68958·PAYLOAD·🇺🇸 United States

Lançado May 1, 2026 de Cape Canaveral Space Force Station

Loading…

Próximas Passagens (próximas 24 horas)

TLE

AtualizadoSource: CelesTrak SupGP

Época: Sep 14, 2026, 21:06 UTC

1 68958C 26099H   26257.87965278  .00070826  00000+0  20909-2 0  2577
2 68958  53.1576 102.1680 0001286  77.2423 154.2093 15.34381162    14

Acompanhe STARLINK-36242 em tempo real com AllMySat

Download on the App Store